{"data":{"norad_id":63370,"intl_designator":"2025-063H","name":"STARLINK-33657","alt_names":[],"object_type":"PAYLOAD","status":"ACTIVE","operator":null,"country":"US","launch_date":"2025-03-26","launch_site_code":"AFWTR","launch_vehicle":null,"mission":null,"orbit_class":"UNKNOWN","rcs_meters":null,"size_class":null,"mass_kg":null,"dimensions":null,"purposes":["comms"],"wikipedia_slug":null,"has_3d_model":false,"image_url":null,"decayed_at":null,"tle_current":{"epoch":"2026-09-20T14:32:39.860160Z","epoch_age_seconds":149646,"freshness":"FRESH","line1":"1 63370U 25063H   26263.60601690  .00008719  00000+0  26890-3 0  9994","line2":"2 63370  53.1597 221.3013 0001235  98.5048 261.6095 15.34396405 84638","mean_motion":15.34396405,"eccentricity":0.0001235,"inclination_deg":53.1597,"raan_deg":221.3013,"arg_perigee_deg":98.5048,"mean_anomaly_deg":261.6095,"bstar":0.0002689,"rev_number":8463,"period_min":93.84797796108,"perigee_km":461.8690802363,"apogee_km":463.55877041486,"semimajor_km":6840.8509253256,"source":"CELESTRAK","updated_at":"2026-09-21T09:00:34.973498Z"}}}